TimeMDT,TemperatureF,Dew PointF,Humidity,Sea Level PressureIn,VisibilityMPH,Wind Direction,Wind SpeedMPH,Gust SpeedMPH,PrecipitationIn,Events,Conditions,WindDirDegrees,DateUTC
12:53 AM,57.0,53.1,87,29.95,10.0,SSW,4.6,-,N/A,,Scattered Clouds,200,2013-09-15 06:53:00
1:53 AM,57.0,52.0,83,29.94,10.0,NW,3.5,-,0.00,Rain,Light Rain,310,2013-09-15 07:53:00
2:39 AM,53.6,51.8,94,30.19,10.0,NNW,13.8,-,0.06,,Overcast,330,2013-09-15 08:39:00
2:46 AM,53.6,51.8,94,30.19,10.0,NW,11.5,18.4,0.06,,Overcast,310,2013-09-15 08:46:00
2:53 AM,54.0,51.1,90,29.96,10.0,NW,17.3,21.9,0.06,,Overcast,310,2013-09-15 08:53:00
3:01 AM,53.6,51.8,94,30.20,9.0,WNW,17.3,23.0,0.00,Rain,Light Rain,290,2013-09-15 09:01:00
3:09 AM,53.6,50.0,88,30.22,4.0,WNW,21.9,26.5,0.01,Rain,Heavy Rain,300,2013-09-15 09:09:00
3:14 AM,53.6,50.0,88,30.21,2.0,NW,19.6,26.5,0.10,Rain,Heavy Rain,320,2013-09-15 09:14:00
3:22 AM,51.8,50.0,94,30.21,1.8,NW,18.4,24.2,0.24,Rain,Heavy Rain,320,2013-09-15 09:22:00
3:27 AM,51.8,50.0,94,30.21,2.5,NNW,16.1,24.2,0.27,Rain,Rain,330,2013-09-15 09:27:00
3:34 AM,51.8,50.0,94,30.20,4.0,NNW,16.1,-,0.29,Rain,Rain,330,2013-09-15 09:34:00
3:53 AM,52.0,50.0,93,29.98,7.0,NNW,15.0,-,0.32,Rain,Light Rain,330,2013-09-15 09:53:00
4:53 AM,53.1,48.9,86,29.96,10.0,North,9.2,-,0.01,,Overcast,350,2013-09-15 10:53:00
5:53 AM,52.0,50.0,93,29.99,10.0,ESE,3.5,-,N/A,,Overcast,110,2013-09-15 11:53:00
6:53 AM,50.0,48.9,96,30.02,8.0,SE,3.5,-,0.01,,Partly Cloudy,130,2013-09-15 12:53:00
7:53 AM,53.1,51.1,93,30.03,10.0,WSW,3.5,-,N/A,,Clear,240,2013-09-15 13:53:00
8:53 AM,61.0,50.0,67,30.00,10.0,Calm,Calm,-,N/A,,Mostly Cloudy,0,2013-09-15 14:53:00
9:53 AM,62.1,48.0,60,30.02,10.0,WSW,4.6,-,N/A,,Clear,240,2013-09-15 15:53:00
10:53 AM,66.0,51.1,59,30.01,10.0,Variable,3.5,-,N/A,,Partly Cloudy,0,2013-09-15 16:53:00
11:53 AM,66.9,51.1,57,30.02,10.0,Calm,Calm,-,N/A,,Partly Cloudy,0,2013-09-15 17:53:00
12:53 PM,69.1,50.0,51,30.01,10.0,SSE,3.5,-,N/A,,Clear,150,2013-09-15 18:53:00
1:53 PM,70.0,50.0,49,29.98,10.0,WSW,6.9,-,N/A,,Mostly Cloudy,240,2013-09-15 19:53:00
2:53 PM,72.0,51.1,48,29.97,10.0,WNW,9.2,-,N/A,,Scattered Clouds,290,2013-09-15 20:53:00
3:53 PM,62.1,51.1,67,30.04,10.0,South,11.5,-,N/A,,Overcast,180,2013-09-15 21:53:00
4:04 PM,57.2,51.8,82,30.25,1.8,South,8.1,-,0.04,Rain,Heavy Rain,180,2013-09-15 22:04:00
4:13 PM,59.0,51.8,77,30.25,4.0,South,12.7,18.4,0.14,Rain,Light Rain,170,2013-09-15 22:13:00
4:53 PM,62.1,52.0,70,30.03,10.0,SSE,11.5,-,0.14,,Mostly Cloudy,150,2013-09-15 22:53:00
5:53 PM,62.1,53.1,72,30.03,10.0,ESE,13.8,-,N/A,,Mostly Cloudy,110,2013-09-15 23:53:00